[[{"header":{"parameterUnit":"m.s-1","parameterCategory":1,"la1":30.2991,"la2":30.254,"lo1":-89.0895,"lo2":-89.0444,"dy":0.0017,"dx":0.0017,"nx":28,"ny":28,"refTime":"2026-02-07T09:00:00:Z","depth":0,"parameterNumber":2,"parameterNumberName":"U-component_of_WINDS"},"data":[0,0,0,0,0,0,0,0,0,0,0,0,0,0,0,0,0,0,0,0,0,0,0,0,0,0,0,0,0,0,0,0,0,0,0,0,0,0,0,0,0,0,0,0,0,0,0,0,0,0,0,0,0,0,0,0,0,0,-4.217,-4.2171,0,-4.2241,-4.2241,-4.2242,-4.2102,-4.2098,-4.2093,-4.2089,-4.2163,-4.2169,-4.2175,0,0,0,0,0,0,0,0,0,0,0,0,0,-4.1916,-4.1922,-4.217,-4.2171,-4.2172,-4.224,-4.2241,-4.2242,-4.2103,-4.2097,-4.2092,-4.2087,-4.2161,-4.2168,-4.2175,0,0,0,0,0,0,0,0,0,0,0,0,0,-4.2011,-4.1923,-4.217,-4.2111,-4.2106,-4.224,-4.2241,-4.2243,-4.2104,-4.2097,-4.209,-4.2084,-4.2158,-4.2167,-4.2176,-4.2372,0,0,-4.2205,-4.2209,0,0,0,0,0,0,0,0,-4.2006,-4.202,-4.2118,-4.2115,-4.211,-4.2155,-4.2179,-4.2286,-4.2106,-4.2105,-4.2088,-4.2081,-4.2166,-4.2174,-4.2203,-4.2376,-4.2379,-4.2206,-4.2212,-4.2216,-4.2218,0,0,0,0,0,0,0,-4.1999,-4.2016,-4.2198,-4.212,-4.2115,-4.2081,-4.2087,-4.2199,-4.2173,-4.2104,-4.2094,-4.2105,-4.2162,-4.2194,-4.2203,-4.238,-4.2206,-4.2214,-4.222,-4.2223,-4.2718,-4.2725,0,0,0,0,0,0,-4.2,-4.2012,-4.2196,-4.22,-4.204,-4.2091,-4.2097,-4.2148,-4.2172,-4.2169,-4.211,-4.2098,-4.2181,-4.2193,-4.2205,-4.2436,-4.2216,-4.2224,-4.223,-4.2711,-4.272,-4.2728,0,0,0,0,0,0,-4.1995,-4.2018,-4.2193,-4.2103,-4.2123,-4.2103,-4.216,-4.2153,-4.2184,-4.2176,-4.2171,-4.2147,-4.2176,-4.2192,-4.2332,-4.2437,-4.2229,-4.2237,-4.2702,-4.2713,-4.2724,-4.2901,0,0,0,0,0,0,-4.1988,-4.2017,-4.2091,-4.2106,-4.2128,-4.2318,-4.2167,-4.2159,-4.2201,-4.2185,-4.2209,-4.2207,-4.2172,-4.2319,-4.2341,-4.2446,-4.2244,-4.2692,-4.2707,-4.272,-4.2885,-4.2917,-4.2943,0,0,0,0,0,-4.198,-4.2138,-4.2095,-4.2118,-4.222,-4.2325,-4.2337,-4.2294,-4.221,-4.2284,-4.2279,-4.2206,-4.2422,-4.2334,-4.2358,-4.2468,-4.2685,-4.2703,-4.2719,-4.2872,-4.291,-4.2943,0,0,0,0,0,0,-4.2136,-4.2139,-4.2091,-4.2259,-4.2293,-4.2301,-4.2393,-4.2335,-4.2394,-4.2377,-4.232,-4.2327,-4.2478,-4.2487,-4.2389,-4.2659,-4.254,-4.2562,-4.2648,-4.2684,-4.2712,-4.2707,-4.2252,0,0,0,0,0,-4.219,-4.2274,-4.2272,-4.242,-4.2439,-4.2414,-4.2458,-4.2421,-4.2454,-4.2467,-4.2472,-4.2507,-4.2582,-4.2634,-4.2703,-4.2886,-4.2889,-4.2973,-4.3002,-4.3026,-4.3046,-4.3144,-4.3181,-4.2783,-4.2783,-4.2783,0,0,-4.2302,-4.2314,-4.2371,-4.2452,-4.2473,-4.2562,-4.2427,-4.2526,-4.2592,-4.2482,-4.2614,-4.262,-4.2655,-4.2818,-4.2889,-4.2829,-4.3157,-4.3048,-4.3067,-4.3074,-4.3165,-4.3203,-4.3237,-4.2795,-4.2793,-4.2791,0,0,-4.2552,-4.257,-4.2695,-4.272,-4.2754,-4.2736,-4.2766,-4.2783,-4.2782,-4.2914,-4.2834,-4.2911,-4.3043,-4.3071,-4.3103,-4.3365,-4.33,-4.3389,-4.354,-4.3636,-4.3668,-4.3695,-4.3789,-4.3823,-4.3409,-4.3409,-4.341,0,-4.2687,-4.2817,-4.2767,-4.2872,-4.2911,-4.2815,-4.2942,-4.2969,-4.3025,-4.3053,-4.2985,-4.3148,-4.3165,-4.3333,-4.3397,-4.3426,-4.3459,-4.3386,-4.3667,-4.3694,-4.3719,-4.3808,-4.3843,-4.342,-4.3419,-4.3418,-4.3417,0,-4.2982,-4.3074,-4.3171,-4.3227,-4.3276,-4.3392,-4.336,-4.3416,-4.3375,-4.3365,-4.35,-4.3517,-4.3588,-4.3625,-4.3587,-4.3789,-4.375,-4.3676,-4.3555,-4.3769,-4.3851,-4.3884,-4.3435,-4.3431,-4.3428,-4.3425,0,0,-4.3332,-4.3359,-4.3395,-4.342,-4.3451,-4.3521,-4.3633,-4.3701,-4.3751,-4.3793,-4.3885,-4.3999,-4.393,-4.3967,-4.393,-4.4015,-4.4222,-4.393,-4.393,-4.3984,-4.4445,-4.4501,-4.4541,-4.4179,-4.4185,-4.419,-4.4442,0,-4.358,-4.3772,-4.373,-4.3919,-4.4003,-4.3914,-4.4011,-4.4041,-4.4035,-4.4106,-4.4098,-4.418,-4.4083,-4.4104,-4.4184,-4.418,-4.4314,-4.4161,-4.4265,-4.427,-4.4259,-4.4584,-4.4644,-4.4881,-4.4474,-4.448,-4.4484,0,-4.3895,-4.3948,-4.4145,-4.4163,-4.4197,-4.4285,-4.4345,-4.4414,-4.4447,-4.4436,-4.4477,-4.4425,-4.4536,-4.4414,-4.4567,-4.4464,-4.4505,-4.4509,-4.4517,-4.4525,-4.439,-4.4601,-4.4955,-4.4991,-4.4534,-4.453,-4.4526,0,-4.413,-4.4252,-4.4385,-4.4409,-4.4433,-4.4497,-4.451,-4.4536,-4.458,-4.4633,-4.4661,-4.4727,-4.4763,-4.4815,-4.4783,-4.4697,-4.4942,-4.4817,-4.4937,-4.4938,-4.4992,-4.4989,-4.5358,-4.5019,-4.5018,-4.5017,-4.5017,0,-4.4411,-4.4536,-4.4491,-4.4574,-4.471,-4.4662,-4.4798,-4.4801,-4.4825,-4.4907,-4.4834,-4.4913,-4.4864,-4.4939,-4.4915,-4.5045,-4.5062,-4.5057,-4.5049,-4.5064,-4.5065,-4.5089,-4.5072,-4.5027,-4.5025,-4.5023,-4.5021,0,-4.4698,-4.4673,-4.4813,-4.4824,-4.483,-4.4931,-4.494,-4.5017,-4.5005,-4.511,-4.5132,-4.5114,-4.5198,-4.517,-4.5261,-4.5244,-4.5411,-4.5382,-4.54,-4.5393,-4.5514,-4.5503,-4.5911,-4.5962,-4.5591,-4.5594,-4.5597,0,-4.4878,-4.4972,-4.4994,-4.5043,-4.5061,-4.5142,-4.5186,-4.5142,-4.5192,-4.5236,-4.5309,-4.5386,-4.5446,-4.5585,-4.5581,-4.565,-4.5622,-4.576,-4.5632,-4.5644,-4.5624,-4.5619,-4.5628,-4.5786,-4.579,-4.5794,-4.5797,0,-4.5202,-4.5186,-4.5252,-4.5316,-4.5372,-4.542,-4.5461,-4.5506,-4.5464,-4.5524,-4.5609,-4.5656,-4.5748,-4.5827,-4.589,-4.5904,-4.5845,-4.5837,-4.5868,-4.5884,-4.5891,-4.5889,-4.547,-4.5828,-4.5825,-4.5822,-4.5821,-4.582,-4.5441,-4.552,-4.5548,-4.5625,-4.5652,-4.5692,-4.5765,-4.5762,-4.5832,-4.5904,-4.5874,-4.5972,-4.6003,-4.6081,-4.6104,-4.6181,-4.6128,-4.6173,-4.6185,-4.6197,-4.6212,-4.5879,-4.6192,-4.6191,-4.619,-4.619,-4.6189,0,-4.5761,-4.5774,-4.5846,-4.5906,-4.5968,-4.5906,-4.5948,-4.6004,-4.6091,-4.6125,-4.6185,-4.6284,-4.636,-4.6361,-4.6432,-4.6494,-4.6468,-4.6514,-4.6509,-4.6513,-4.6256,-4.6221,-4.6533,-4.6533,-4.6533,-4.6533,-4.6533,-4.6533,-4.5935,-4.6065,-4.6052,-4.6195,-4.6207,-4.6303,-4.6333,-4.637,-4.6397,-4.651,-4.6572,-4.6573,-4.6594,-4.6666,-4.6733,-4.6731,-4.6761,-4.6818,-4.6806,-4.6565,-4.6531,-4.6499,-4.6466,-4.6824,-4.6825,-4.7057,-4.7059,-4.7061]},{"header":{"parameterUnit":"m.s-1","parameterCategory":1,"la1":30.2991,"la2":30.254,"lo1":-89.0895,"lo2":-89.0444,"dy":0.0017,"dx":0.0017,"nx":28,"ny":28,"refTime":"2026-02-07T09:00:00:Z","depth":0,"parameterNumber":3,"parameterNumberName":"V-component_of_WINDS"},"data":[0,0,0,0,0,0,0,0,0,0,0,0,0,0,0,0,0,0,0,0,0,0,0,0,0,0,0,0,0,0,0,0,0,0,0,0,0,0,0,0,0,0,0,0,0,0,0,0,0,0,0,0,0,0,0,0,0,0,0.2628,0.2628,0,0.2582,0.2582,0.2581,0.2532,0.2532,0.2531,0.253,0.2483,0.2482,0.2481,0,0,0,0,0,0,0,0,0,0,0,0,0,0.2676,0.2675,0.2628,0.2628,0.2627,0.2582,0.2582,0.2581,0.2533,0.2532,0.2531,0.253,0.2483,0.2482,0.2481,0,0,0,0,0,0,0,0,0,0,0,0,0,0.2645,0.2675,0.2629,0.2598,0.2594,0.2582,0.2582,0.2581,0.2533,0.2532,0.2531,0.253,0.2483,0.2482,0.2481,0.2496,0,0,0.2478,0.2478,0,0,0,0,0,0,0,0,0.2647,0.2643,0.2603,0.26,0.2596,0.2562,0.2581,0.2552,0.2533,0.2556,0.253,0.2529,0.251,0.2507,0.25,0.2493,0.2491,0.2478,0.2478,0.2477,0.2477,0,0,0,0,0,0,0,0.2649,0.2645,0.261,0.2602,0.2598,0.2586,0.2581,0.2575,0.2539,0.2554,0.255,0.2546,0.2508,0.2501,0.2499,0.2491,0.2478,0.2477,0.2477,0.2476,0.2495,0.2496,0,0,0,0,0,0,0.2656,0.2647,0.2612,0.2609,0.2619,0.2586,0.258,0.2574,0.2539,0.2533,0.2547,0.2544,0.2503,0.25,0.2497,0.2512,0.2477,0.2476,0.2476,0.2494,0.2495,0.2496,0,0,0,0,0,0,0.2657,0.2653,0.2613,0.2627,0.2621,0.2587,0.258,0.2574,0.2567,0.2534,0.2527,0.2546,0.2502,0.2498,0.2497,0.251,0.2476,0.2475,0.2493,0.2494,0.2496,0.2543,0,0,0,0,0,0,0.2658,0.2654,0.2658,0.2627,0.262,0.2614,0.2581,0.2573,0.2565,0.2561,0.2532,0.2526,0.2501,0.2498,0.2496,0.2508,0.2474,0.2491,0.2493,0.2495,0.254,0.2546,0.2551,0,0,0,0,0,0.266,0.2673,0.2659,0.2655,0.2626,0.2615,0.2611,0.2583,0.2567,0.2572,0.255,0.2527,0.2509,0.2499,0.2495,0.2507,0.249,0.2493,0.2495,0.2538,0.2545,0.2551,0,0,0,0,0,0,0.2706,0.2669,0.2652,0.2655,0.2639,0.2607,0.2612,0.2591,0.2578,0.2575,0.254,0.2534,0.2537,0.2522,0.2511,0.252,0.2496,0.2498,0.253,0.2536,0.2542,0.2545,0.2473,0,0,0,0,0,0.2717,0.2711,0.2678,0.2684,0.2677,0.2646,0.264,0.262,0.2601,0.2594,0.2572,0.2555,0.2546,0.254,0.253,0.2538,0.2531,0.2545,0.255,0.2555,0.2557,0.2561,0.2567,0.2504,0.2504,0.2504,0,0,0.2739,0.2717,0.2716,0.2693,0.2678,0.2673,0.264,0.2636,0.2632,0.2593,0.2591,0.2575,0.2553,0.2557,0.2557,0.2544,0.2573,0.2558,0.2562,0.2561,0.2564,0.257,0.2576,0.2506,0.2506,0.2505,0,0,0.2776,0.2759,0.2762,0.2748,0.2726,0.2705,0.2706,0.2678,0.2666,0.2663,0.2633,0.2629,0.2613,0.2599,0.259,0.2624,0.2602,0.2622,0.265,0.2655,0.266,0.2664,0.2677,0.2682,0.2624,0.2624,0.2624,0,0.2805,0.2797,0.2767,0.2765,0.2757,0.2722,0.2726,0.2713,0.2688,0.2683,0.2669,0.265,0.2633,0.2634,0.2642,0.2636,0.2636,0.2625,0.2662,0.2666,0.2669,0.2681,0.2686,0.2626,0.2626,0.2626,0.2626,0,0.2835,0.283,0.2836,0.2813,0.2805,0.2806,0.2777,0.2773,0.2754,0.2735,0.2734,0.2712,0.2697,0.2696,0.2677,0.2694,0.2687,0.2668,0.2643,0.2678,0.2689,0.2693,0.263,0.2629,0.2628,0.2628,0,0,0.2899,0.2861,0.2864,0.2854,0.2827,0.2823,0.2823,0.2809,0.2806,0.279,0.279,0.2778,0.2761,0.2751,0.273,0.2734,0.2764,0.2715,0.2714,0.2725,0.2783,0.2798,0.2803,0.2749,0.275,0.2751,0.2785,0,0.2932,0.293,0.2904,0.2909,0.2904,0.2872,0.2872,0.2856,0.2839,0.2833,0.2813,0.2806,0.2783,0.2777,0.278,0.276,0.2775,0.2757,0.2749,0.2749,0.2756,0.2809,0.2824,0.2858,0.2789,0.2789,0.279,0,0.2969,0.2957,0.2962,0.2937,0.2934,0.2935,0.292,0.2915,0.2896,0.2884,0.2873,0.285,0.2849,0.2826,0.2824,0.2813,0.2808,0.2798,0.2799,0.2797,0.2772,0.2809,0.2867,0.2873,0.2796,0.2796,0.2795,0,0.3017,0.3001,0.3003,0.2995,0.2965,0.2967,0.2954,0.2935,0.2929,0.2916,0.2912,0.2899,0.2893,0.2884,0.2859,0.2844,0.286,0.2835,0.285,0.2851,0.2855,0.2855,0.2914,0.2851,0.2851,0.2851,0.2851,0,0.3056,0.3061,0.3024,0.3025,0.3029,0.3,0.3005,0.299,0.2973,0.2971,0.2942,0.294,0.2907,0.2902,0.2882,0.2884,0.2881,0.2871,0.2866,0.2874,0.2875,0.287,0.2868,0.2853,0.2852,0.2852,0.2852,0,0.3109,0.3084,0.3084,0.3056,0.305,0.3054,0.3031,0.3031,0.3012,0.301,0.3008,0.2979,0.2972,0.2946,0.2932,0.2918,0.2927,0.2917,0.2934,0.293,0.2947,0.2946,0.3005,0.3012,0.2945,0.2946,0.2947,0,0.3136,0.3139,0.3112,0.3109,0.3098,0.3093,0.3087,0.3058,0.3053,0.3033,0.3036,0.3026,0.3017,0.3007,0.2985,0.2975,0.2964,0.2985,0.2962,0.2971,0.2965,0.2965,0.2966,0.299,0.2991,0.2992,0.2993,0,0.3187,0.3175,0.3167,0.3156,0.3149,0.3139,0.3126,0.3125,0.3093,0.3089,0.3082,0.3075,0.3061,0.3052,0.3039,0.3026,0.3004,0.3,0.3003,0.3012,0.3022,0.3017,0.2948,0.2999,0.2998,0.2998,0.2997,0.2997,0.3228,0.323,0.3212,0.3204,0.3192,0.3182,0.3181,0.3163,0.3156,0.3143,0.3127,0.3122,0.3105,0.3084,0.3073,0.3069,0.3057,0.3061,0.3062,0.3064,0.3069,0.3022,0.3066,0.3066,0.3066,0.3066,0.3066,0,0.3278,0.3265,0.3259,0.3243,0.3238,0.3218,0.3204,0.3201,0.3197,0.3183,0.3175,0.3167,0.3158,0.3136,0.3126,0.3127,0.3117,0.3125,0.3125,0.3123,0.3079,0.3078,0.3134,0.3134,0.3134,0.3134,0.3134,0.3134,0.3304,0.3306,0.3292,0.3288,0.3275,0.327,0.3264,0.3255,0.3243,0.3236,0.3229,0.3215,0.3198,0.3186,0.3178,0.3172,0.317,0.3182,0.3172,0.3132,0.3126,0.312,0.3118,0.3181,0.3181,0.3216,0.3216,0.3217]}]]